This is the latest recevied weather packets stored in our database for station/object K9YK-13. If no packets are shown the sender has not sent any weather packets the latest 10 day(s).
| Time | Temp. | Humidity | Pressure | Rain* | Wind** | Luminosity | Snow |
|---|---|---|---|---|---|---|---|
| 1778159169 | 8.89° C | 82% | 0 hPa | 0 mm | - | - | - |
| 1778158869 | 8.89° C | 80% | 0 hPa | 0 mm | - | - | - |
| 1778158569 | 7.22° C | 80% | 0 hPa | 0 mm | - | - | - |
| 1778158269 | 8.33° C | 74% | 0 hPa | 0 mm | - | - | - |
| 1778157969 | 7.22° C | 85% | 0 hPa | 0 mm | - | - | - |
| 1778157669 | 7.22° C | 88% | 0 hPa | 0 mm | - | - | - |
| 1778157369 | 5.56° C | 85% | 0 hPa | 0 mm | - | - | - |
| 1778157069 | 8.33° C | 95% | 0 hPa | 0 mm | - | - | - |
| 1778156769 | 7.22° C | 96% | 0 hPa | 0 mm | - | - | - |
| 1778156469 | 6.11° C | 97% | 0 hPa | 0 mm | - | - | - |
| 1778156169 | 5.56° C | 97% | 0 hPa | 0 mm | - | - | - |
| 1778155869 | 4.44° C | 96% | 0 hPa | 0 mm | - | - | - |
| 1778155569 | 5° C | 98% | 0 hPa | 0 mm | - | - | - |
| 1778155269 | 4.44° C | 98% | 0 hPa | 0 mm | - | - | - |
| 1778154969 | 3.33° C | 98% | 0 hPa | 0 mm | - | - | - |
| 1778154669 | 3.89° C | 97% | 0 hPa | 0 mm | - | - | - |
| 1778154369 | 3.89° C | 98% | 0 hPa | 0 mm | - | - | - |
| 1778154069 | 3.33° C | 98% | 0 hPa | 0 mm | - | - | - |
| 1778153769 | 2.22° C | 98% | 0 hPa | 0 mm | - | - | - |
| 1778153469 | 3.89° C | 98% | 0 hPa | 0 mm | - | - | - |
| 1778153169 | 3.33° C | 98% | 0 hPa | 0 mm | - | - | - |
| 1778152869 | 2.22° C | 98% | 0 hPa | 0 mm | - | - | - |
| 1778152569 | 2.22° C | 98% | 0 hPa | 0 mm | - | - | - |
| 1778152269 | 3.89° C | 98% | 0 hPa | 0 mm | - | - | - |
| 1778151969 | 3.33° C | 98% | 0 hPa | 0 mm | - | - | - |
* Rain latest hour (hover to see other rain measurements)
** Current wind speed in m/s (hover to see current wind gust speed)